| time (UTC) | temp F | wind direction | speed knots | gust knots | rain 1hr in | rain 24hr in | rain mn in | humidity % | barometer mb |
| 20260905150054 | 60 | 302 | 9.6 | 15.6 | 0.00 | 0.01 | 0.01 | 75 | 1014.9 |
| 20260905144552 | 58 | 303 | 13.0 | 18.2 | 0.00 | 0.01 | 0.01 | 75 | 1014.8 |
| 20260905143036 | 57 | 299 | 9.6 | 13.9 | 0.00 | 0.01 | 0.01 | 76 | 1015.1 |
| 20260905141536 | 56 | 311 | 8.7 | 12.2 | 0.00 | 0.01 | 0.01 | 78 | 1014.7 |
| 20260905140016 | 54 | 298 | 7.8 | 13.0 | 0.00 | 0.01 | 0.01 | 81 | 1014.8 |
| 20260905134516 | 52 | 246 | 5.2 | 7.0 | 0.00 | 0.01 | 0.01 | 85 | 1015.1 |
| 20260905133058 | 52 | 263 | 4.3 | 7.0 | 0.00 | 0.01 | 0.01 | 84 | 1015.3 |
| 20260905131606 | 53 | 224 | 4.3 | 7.0 | 0.01 | 0.01 | 0.01 | 83 | 1015.0 |
| 20260905130037 | 52 | 15 | 5.2 | 11.3 | 0.01 | 0.01 | 0.01 | 82 | 1013.8 |
| 20260905124537 | 51 | 15 | 7.8 | 12.2 | 0.01 | 0.01 | 0.01 | 82 | 1013.3 |
| 20260905123021 | 52 | 294 | 6.1 | 9.6 | 0.01 | 0.01 | 0.01 | 83 | 1013.5 |
| 20260905121525 | 52 | 14 | 4.3 | 9.6 | 0.00 | 0.00 | 0.00 | 82 | 1014.6 |
| 20260905120100 | 53 | 15 | 7.8 | 11.3 | 0.00 | 0.00 | 0.00 | 76 | 1015.1 |
| 20260905114556 | 54 | 243 | 8.7 | 10.4 | 0.00 | 0.00 | 0.00 | 73 | 1014.6 |
| 20260905113037 | 53 | 284 | 5.2 | 8.7 | 0.00 | 0.00 | 0.00 | 71 | 1013.6 |
| 20260905111543 | 54 | 287 | 6.1 | 8.7 | 0.00 | 0.00 | 0.00 | 70 | 1013.7 |
| 20260905110019 | 53 | 290 | 8.7 | 11.3 | 0.00 | 0.00 | 0.00 | 71 | 1013.7 |
| 20260905104516 | 52 | 275 | 5.2 | 7.8 | 0.00 | 0.00 | 0.00 | 71 | 1013.7 |
| 20260905103058 | 52 | 302 | 7.8 | 9.6 | 0.00 | 0.00 | 0.00 | 72 | 1013.2 |
| 20260905101602 | 53 | 288 | 8.7 | 12.2 | 0.00 | 0.00 | 0.00 | 69 | 1013.1 |
| 20260905100040 | 54 | 310 | 7.0 | 9.6 | 0.00 | 0.00 | 0.00 | 68 | 1013.0 |
| 20260905094540 | 54 | 336 | 6.1 | 8.7 | 0.00 | 0.00 | 0.00 | 67 | 1013.0 |
| 20260905093022 | 53 | 332 | 7.0 | 8.7 | 0.00 | 0.00 | 0.00 | 71 | 1013.1 |
| 20260905091522 | 50 | 360 | 5.2 | 7.8 | 0.00 | 0.00 | 0.00 | 72 | 1012.9 |
| 20260905090003 | 51 | 355 | 5.2 | 7.0 | 0.00 | 0.00 | 0.00 | 70 | 1013.0 |
| 20260905084502 | 51 | 360 | 4.3 | 6.1 | 0.00 | 0.00 | 0.00 | 70 | 1012.9 |
| 20260905083101 | 51 | 340 | 6.1 | 9.6 | 0.00 | 0.00 | 0.00 | 69 | 1012.5 |
| 20260905081540 | 52 | 321 | 4.3 | 7.8 | 0.00 | 0.00 | 0.00 | 68 | 1012.7 |
| 20260905080042 | 53 | 305 | 6.1 | 7.8 | 0.00 | 0.00 | 0.00 | 67 | 1013.1 |
| 20260905074521 | 53 | 284 | 6.1 | 7.8 | 0.00 | 0.00 | 0.00 | 67 | 1013.4 |
| 20260905073022 | 52 | 285 | 6.1 | 7.0 | 0.00 | 0.00 | 0.00 | 66 | 1013.3 |
| 20260905071502 | 52 | 290 | 6.1 | 7.0 | 0.00 | 0.00 | 0.00 | 66 | 1013.3 |
| 20260905070110 | 53 | 290 | 7.0 | 8.7 | 0.00 | 0.00 | 0.00 | 64 | 1013.0 |
| 20260905064543 | 53 | 301 | 7.0 | 8.7 | 0.00 | 0.00 | 0.00 | 64 | 1012.8 |
| 20260905063037 | 54 | 300 | 6.1 | 8.7 | 0.00 | 0.00 | 0.00 | 60 | 1012.8 |
| 20260905061519 | 55 | 315 | 6.1 | 8.7 | 0.00 | 0.00 | 0.00 | 59 | 1012.8 |
| 20260905060018 | 56 | 304 | 6.1 | 7.8 | 0.00 | 0.00 | 0.00 | 57 | 1012.7 |
| 20260905054603 | 56 | 323 | 7.8 | 9.6 | 0.00 | 0.00 | 0.00 | 57 | 1012.3 |
| 20260905053100 | 55 | 336 | 7.8 | 10.4 | 0.00 | 0.00 | 0.00 | 58 | 1012.0 |
| 20260905051545 | 54 | 347 | 6.1 | 8.7 | 0.00 | 0.00 | 0.00 | 58 | 1012.2 |
| 20260905050046 | 54 | 340 | 6.1 | 8.7 | 0.00 | 0.00 | 0.00 | 59 | 1012.5 |
| 20260905044522 | 54 | 360 | 7.0 | 7.8 | 0.00 | 0.00 | 0.00 | 57 | 1012.4 |
| 20260905043021 | 54 | 13 | 6.1 | 8.7 | 0.00 | 0.00 | 0.00 | 56 | 1012.1 |
| 20260905041509 | 56 | 16 | 3.5 | 4.3 | 0.00 | 0.00 | 0.00 | 55 | 1012.5 |
| 20260905040005 | 55 | 21 | 4.3 | 6.1 | 0.00 | 0.00 | 0.00 | 56 | 1012.2 |
| 20260905034502 | 54 | 19 | 6.1 | 7.8 | 0.00 | 0.00 | 0.00 | 55 | 1011.9 |
| 20260905033058 | 56 | 30 | 7.0 | 7.8 | 0.00 | 0.00 | 0.00 | 52 | 1011.5 |
| 20260905031554 | 57 | 31 | 4.3 | 6.1 | 0.00 | 0.00 | 0.00 | 51 | 1011.8 |
| 20260905030053 | 57 | 14 | 6.1 | 7.8 | 0.00 | 0.00 | 0.00 | 50 | 1011.3 |
| 20260905024548 | 59 | 355 | 5.2 | 8.7 | 0.00 | 0.00 | 0.00 | 48 | 1010.9 |
| 20260905023043 | 61 | 11 | 5.2 | 7.8 | 0.00 | 0.00 | 0.00 | 45 | 1010.9 |
| 20260905021523 | 64 | 341 | 5.2 | 7.0 | 0.00 | 0.00 | 0.00 | 42 | 1010.9 |
| 20260905020025 | 66 | 355 | 6.1 | 10.4 | 0.00 | 0.00 | 0.00 | 40 | 1010.2 |
| 20260905014559 | 67 | 342 | 7.8 | 15.6 | 0.00 | 0.00 | 0.00 | 38 | 1009.7 |
| 20260905013101 | 68 | 5 | 8.7 | 17.4 | 0.00 | 0.00 | 0.00 | 37 | 1009.4 |
| 20260905011539 | 69 | 334 | 14.8 | 20.9 | 0.00 | 0.00 | 0.00 | 35 | 1008.8 |
| 20260905010038 | 71 | 336 | 13.9 | 19.1 | 0.00 | 0.00 | 0.00 | 34 | 1008.9 |
| 20260905004521 | 71 | 351 | 14.8 | 20.0 | 0.00 | 0.00 | 0.00 | 34 | 1008.9 |
| 20260905003020 | 71 | 25 | 12.2 | 19.1 | 0.00 | 0.00 | 0.00 | 33 | 1009.1 |
| 20260905001502 | 72 | 331 | 14.8 | 20.9 | 0.00 | 0.00 | 0.00 | 33 | 1008.7 |
| 20260905000100 | 72 | 348 | 16.5 | 21.7 | 0.00 | 0.00 | 0.00 | 33 | 1008.7 |
| 20260904234547 | 73 | 329 | 15.6 | 24.3 | 0.00 | 0.00 | 0.00 | 32 | 1008.3 |
| 20260904233039 | 75 | 327 | 16.5 | 23.5 | 0.00 | 0.00 | 0.00 | 31 | 1008.4 |
| 20260904231521 | 76 | 336 | 14.8 | 27.8 | 0.00 | 0.00 | 0.00 | 31 | 1008.3 |
| 20260904230020 | 76 | 294 | 13.9 | 20.9 | 0.00 | 0.00 | 0.00 | 31 | 1008.3 |
| 20260904224507 | 75 | 308 | 12.2 | 22.6 | 0.00 | 0.00 | 0.00 | 30 | 1008.2 |
| 20260904223007 | 75 | 296 | 14.8 | 20.0 | 0.00 | 0.00 | 0.00 | 31 | 1008.2 |
| 20260904221505 | 76 | 304 | 15.6 | 20.0 | 0.00 | 0.00 | 0.00 | 31 | 1008.1 |
| 20260904220004 | 76 | 290 | 13.9 | 21.7 | 0.00 | 0.00 | 0.00 | 30 | 1007.9 |
| 20260904214506 | 76 | 307 | 17.4 | 21.7 | 0.00 | 0.00 | 0.00 | 30 | 1007.9 |
| 20260904213108 | 77 | 316 | 16.5 | 20.9 | 0.00 | 0.00 | 0.00 | 30 | 1007.5 |
| 20260904211601 | 77 | 271 | 15.6 | 21.7 | 0.00 | 0.00 | 0.00 | 30 | 1007.1 |
| 20260904210107 | 76 | 279 | 17.4 | 23.5 | 0.00 | 0.00 | 0.00 | 30 | 1007.1 |
| 20260904204536 | 76 | 296 | 14.8 | 20.9 | 0.00 | 0.00 | 0.00 | 30 | 1007.0 |
| 20260904203043 | 75 | 292 | 16.5 | 21.7 | 0.00 | 0.00 | 0.00 | 31 | 1006.8 |
| 20260904201516 | 75 | 290 | 12.2 | 21.7 | 0.00 | 0.00 | 0.00 | 32 | 1006.8 |
| 20260904200016 | 73 | 257 | 12.2 | 18.2 | 0.00 | 0.00 | 0.00 | 33 | 1006.8 |
| 20260904194555 | 73 | 309 | 13.0 | 17.4 | 0.00 | 0.00 | 0.00 | 35 | 1006.6 |
| 20260904193057 | 72 | 258 | 13.0 | 17.4 | 0.00 | 0.00 | 0.00 | 36 | 1006.4 |
| 20260904191533 | 71 | 259 | 11.3 | 16.5 | 0.00 | 0.00 | 0.00 | 37 | 1006.2 |
| 20260904190029 | 70 | 262 | 12.2 | 16.5 | 0.00 | 0.00 | 0.00 | 37 | 1006.1 |
| 20260904184511 | 70 | 240 | 12.2 | 16.5 | 0.00 | 0.00 | 0.00 | 38 | 1006.1 |
| 20260904183010 | 69 | 237 | 13.0 | 16.5 | 0.00 | 0.00 | 0.00 | 40 | 1006.0 |
| 20260904181550 | 70 | 246 | 13.0 | 18.2 | 0.00 | 0.00 | 0.00 | 40 | 1006.0 |
| 20260904180049 | 68 | 244 | 10.4 | 15.6 | 0.00 | 0.00 | 0.00 | 40 | 1005.9 |
| 20260904174528 | 67 | 251 | 9.6 | 13.0 | 0.00 | 0.00 | 0.00 | 42 | 1005.8 |
| 20260904173031 | 66 | 242 | 7.0 | 11.3 | 0.00 | 0.00 | 0.00 | 42 | 1005.6 |
| 20260904171502 | 65 | 259 | 9.6 | 14.8 | 0.00 | 0.00 | 0.00 | 45 | 1005.6 |
| 20260904170100 | 64 | 261 | 10.4 | 16.5 | 0.00 | 0.00 | 0.00 | 49 | 1005.7 |
| 20260904164540 | 64 | 257 | 11.3 | 16.5 | 0.00 | 0.00 | 0.00 | 47 | 1005.6 |
| 20260904163040 | 63 | 244 | 11.3 | 18.2 | 0.00 | 0.00 | 0.00 | 47 | 1005.4 |
| 20260904161518 | 66 | 232 | 12.2 | 17.4 | 0.00 | 0.00 | 0.00 | 42 | 1005.1 |
| 20260904160027 | 67 | 220 | 7.8 | 10.4 | 0.00 | 0.00 | 0.00 | 41 | 1004.8 |
| 20260904154601 | 65 | 269 | 3.5 | 5.2 | 0.00 | 0.00 | 0.00 | 48 | 1004.5 |
| 20260904153101 | 64 | 14 | 3.5 | 5.2 | 0.00 | 0.00 | 0.00 | 48 | 1004.0 |
| 20260904151542 | 62 | 30 | 2.6 | 5.2 | 0.00 | 0.00 | 0.00 | 51 | 1004.1 |